AFR025 KLAX-LFPG

Flight info

Callsign AFR025
Flight time N/A
Altitude 33000
Route ORCKA5 LAS Q70 BLIPP Q842 WINEN DCT KU60O DCT KU72Q DCT KU09W DCT 49N100W 5430N09000W/N0490F350 58N080W 5930N07000W DCT RODBO/M083F350 DCT PIDSO DCT 61N050W 61N040W 60N030W 58N020W DCT SUNOT/N0477F350 DCT KESIX DCT REVNU/N0475F370 DCT CON DCT OSGAR DCT MORAG DCT NUCHU L18 MID/N0451F290 Y803 SFD UM605 BIBAX
Aircraft B77W/H-SDE2E3FGHIJ3J5M1P2RWXYZ/LB1D1

Departure

Time N/A
Airport Los Angeles International Airport (KLAX)

Arrival

Time 2026-05-08 10:44
Airport Charles de Gaulle International Airport (LFPG)
Time Latitude Longitude Altitude Speed Heading
2026-05-08 10:10 50.79919 0.02583 37064 ft 489 kts 123°
2026-05-08 10:12 50.78045 0.07192 37074 ft 484 kts 126°
2026-05-08 10:13 50.75989 0.11324 37077 ft 471 kts 133°
2026-05-08 10:13 50.73770 0.15042 36900 ft 462 kts 137°
2026-05-08 10:13 50.71377 0.18377 36489 ft 456 kts 143°
2026-05-08 10:13 50.68905 0.21468 36106 ft 451 kts 143°
2026-05-08 10:14 50.66456 0.24530 35691 ft 448 kts 143°
2026-05-08 10:14 50.64028 0.27589 35233 ft 445 kts 142°
2026-05-08 10:14 50.61628 0.30636 34817 ft 442 kts 142°
2026-05-08 10:14 50.59238 0.33675 34401 ft 440 kts 142°
2026-05-08 10:15 50.56863 0.36694 33945 ft 438 kts 142°
2026-05-08 10:15 50.54497 0.39704 33471 ft 436 kts 142°
2026-05-08 10:15 50.52148 0.42693 33041 ft 433 kts 141°
2026-05-08 10:15 50.49809 0.45664 32589 ft 430 kts 141°
2026-05-08 10:16 50.47489 0.48605 32178 ft 427 kts 142°
2026-05-08 10:16 50.45186 0.51518 31742 ft 424 kts 142°
2026-05-08 10:16 50.42897 0.54407 31338 ft 421 kts 142°
2026-05-08 10:16 50.40626 0.57270 30908 ft 418 kts 142°
2026-05-08 10:17 50.38365 0.60118 30499 ft 415 kts 142°
2026-05-08 10:17 50.36122 0.62938 30056 ft 412 kts 142°
2026-05-08 10:17 50.33891 0.65743 29567 ft 410 kts 142°
2026-05-08 10:17 50.31681 0.68522 29139 ft 406 kts 142°
2026-05-08 10:18 50.29490 0.71276 28723 ft 402 kts 142°
2026-05-08 10:18 50.27318 0.74005 28310 ft 399 kts 142°
2026-05-08 10:18 50.25163 0.76709 27882 ft 395 kts 142°
2026-05-08 10:18 50.23026 0.79389 27465 ft 393 kts 142°
2026-05-08 10:19 50.20905 0.82043 27039 ft 390 kts 142°
2026-05-08 10:19 50.18794 0.84680 26624 ft 387 kts 143°
2026-05-08 10:19 50.16698 0.87290 26209 ft 384 kts 143°
2026-05-08 10:20 50.12542 0.92449 25407 ft 379 kts 143°
2026-05-08 10:20 50.10487 0.94998 25007 ft 377 kts 143°
2026-05-08 10:20 50.08439 0.97534 24621 ft 375 kts 143°
2026-05-08 10:20 50.06405 1.00047 24209 ft 372 kts 144°
2026-05-08 10:21 50.04277 1.02275 23867 ft 366 kts 153°
2026-05-08 10:21 50.02021 1.04073 23418 ft 363 kts 156°
2026-05-08 10:21 49.99737 1.05709 22993 ft 360 kts 157°
2026-05-08 10:21 49.97484 1.07295 22562 ft 348 kts 157°
2026-05-08 10:22 49.95330 1.08830 22189 ft 334 kts 157°
2026-05-08 10:22 49.93267 1.10325 21839 ft 323 kts 157°
2026-05-08 10:22 49.91217 1.11825 21533 ft 330 kts 156°
2026-05-08 10:22 49.89116 1.13373 21170 ft 337 kts 156°
2026-05-08 10:23 49.86999 1.14942 20804 ft 337 kts 156°
2026-05-08 10:23 49.84891 1.16511 20442 ft 335 kts 156°
2026-05-08 10:23 49.82801 1.18070 20089 ft 332 kts 156°
2026-05-08 10:23 49.80728 1.19618 19733 ft 329 kts 156°
2026-05-08 10:24 49.78672 1.21152 19384 ft 327 kts 156°
2026-05-08 10:24 49.76628 1.22675 19040 ft 325 kts 156°
2026-05-08 10:24 49.74598 1.24187 18698 ft 323 kts 156°
2026-05-08 10:24 49.72580 1.25689 18356 ft 321 kts 156°
2026-05-08 10:25 49.70602 1.27158 17972 ft 319 kts 156°
2026-05-08 10:25 49.68585 1.28657 17608 ft 316 kts 156°
2026-05-08 10:25 49.66636 1.30102 17260 ft 313 kts 156°
2026-05-08 10:25 49.64679 1.31553 16935 ft 311 kts 156°
2026-05-08 10:26 49.62730 1.32997 16605 ft 310 kts 156°
2026-05-08 10:26 49.60783 1.34437 16281 ft 311 kts 156°
2026-05-08 10:26 49.58832 1.35879 15958 ft 311 kts 156°
2026-05-08 10:26 49.56882 1.37320 15623 ft 310 kts 156°
2026-05-08 10:27 49.54947 1.38748 15285 ft 307 kts 156°
2026-05-08 10:27 49.53025 1.40166 14964 ft 305 kts 156°
2026-05-08 10:27 49.51116 1.41573 14642 ft 303 kts 156°
2026-05-08 10:27 49.49224 1.42968 14320 ft 301 kts 156°
2026-05-08 10:28 49.47342 1.44352 13999 ft 299 kts 156°
2026-05-08 10:28 49.45472 1.45725 13666 ft 297 kts 156°
2026-05-08 10:28 49.43613 1.47087 13324 ft 295 kts 156°
2026-05-08 10:28 49.41760 1.48446 12987 ft 295 kts 156°
2026-05-08 10:29 49.39907 1.49805 12694 ft 296 kts 155°
2026-05-08 10:29 49.38048 1.51172 12384 ft 296 kts 155°
2026-05-08 10:29 49.36195 1.52528 12053 ft 294 kts 155°
2026-05-08 10:29 49.34356 1.53870 11740 ft 292 kts 155°
2026-05-08 10:30 49.32531 1.55202 11426 ft 289 kts 154°
2026-05-08 10:30 49.30912 1.56926 11090 ft 284 kts 130°
2026-05-08 10:30 49.29979 1.59574 10956 ft 286 kts 106°
2026-05-08 10:30 49.29695 1.62598 10793 ft 289 kts 93°
2026-05-08 10:31 49.29586 1.65646 10615 ft 291 kts 93°
2026-05-08 10:31 49.29463 1.68775 10433 ft 290 kts 93°
2026-05-08 10:31 49.29330 1.71841 10250 ft 285 kts 95°
2026-05-08 10:31 49.28769 1.74692 10062 ft 281 kts 122°
2026-05-08 10:32 49.27424 1.76823 9865 ft 279 kts 146°
2026-05-08 10:32 49.25700 1.78149 9649 ft 276 kts 156°
2026-05-08 10:32 49.23939 1.79304 9415 ft 275 kts 156°
2026-05-08 10:32 49.22188 1.80464 9218 ft 274 kts 156°
2026-05-08 10:33 49.20442 1.81629 9003 ft 273 kts 155°
2026-05-08 10:33 49.18707 1.82796 8790 ft 272 kts 155°
2026-05-08 10:33 49.17058 1.84137 8503 ft 265 kts 141°
2026-05-08 10:33 49.15704 1.86016 8316 ft 266 kts 134°
2026-05-08 10:34 49.14384 1.88085 8131 ft 276 kts 133°
2026-05-08 10:34 49.13046 1.90178 7877 ft 272 kts 134°
2026-05-08 10:34 49.11732 1.92195 7670 ft 262 kts 134°
2026-05-08 10:34 49.10471 1.94103 7457 ft 248 kts 135°
2026-05-08 10:35 49.09250 1.95927 7286 ft 246 kts 135°
2026-05-08 10:35 49.08016 1.97759 7111 ft 249 kts 135°
2026-05-08 10:35 49.06765 1.99607 6939 ft 251 kts 135°
2026-05-08 10:35 49.05513 2.01448 6728 ft 246 kts 136°
2026-05-08 10:36 49.04307 2.03213 6525 ft 234 kts 136°
2026-05-08 10:36 49.03138 2.04924 6368 ft 236 kts 136°
2026-05-08 10:36 49.01937 2.06680 6185 ft 242 kts 136°
2026-05-08 10:36 49.00718 2.08458 6001 ft 243 kts 136°
2026-05-08 10:37 48.99498 2.10235 5803 ft 242 kts 136°
2026-05-08 10:37 48.98285 2.11999 5617 ft 240 kts 135°
2026-05-08 10:37 48.97309 2.13978 5392 ft 232 kts 109°
2026-05-08 10:37 48.97139 2.16335 5237 ft 219 kts 84°
2026-05-08 10:38 48.97267 2.18587 5101 ft 208 kts 85°
2026-05-08 10:38 48.97373 2.20711 4978 ft 198 kts 85°
2026-05-08 10:38 48.97481 2.22778 4733 ft 192 kts 84°
2026-05-08 10:38 48.97588 2.24785 4456 ft 187 kts 85°
2026-05-08 10:39 48.97693 2.26734 4198 ft 184 kts 84°
2026-05-08 10:39 48.97796 2.28657 3960 ft 182 kts 85°
2026-05-08 10:39 48.97900 2.30579 3730 ft 181 kts 85°
2026-05-08 10:39 48.98002 2.32498 3473 ft 181 kts 85°
2026-05-08 10:40 48.98104 2.34392 3237 ft 179 kts 85°
2026-05-08 10:40 48.98205 2.36276 2979 ft 178 kts 85°
2026-05-08 10:40 48.98303 2.38147 2742 ft 179 kts 85°
2026-05-08 10:40 48.98404 2.40026 2516 ft 179 kts 85°
2026-05-08 10:41 48.98507 2.41912 2257 ft 177 kts 86°
2026-05-08 10:41 48.98604 2.43754 2036 ft 171 kts 85°
2026-05-08 10:41 48.98696 2.45466 1819 ft 155 kts 85°
2026-05-08 10:41 48.98780 2.47022 1592 ft 138 kts 85°
2026-05-08 10:42 48.98855 2.48437 1435 ft 133 kts 85°
2026-05-08 10:42 48.98931 2.49851 1260 ft 134 kts 84°
2026-05-08 10:42 48.99006 2.51264 1071 ft 135 kts 85°
2026-05-08 10:42 48.99078 2.52688 900 ft 133 kts 84°
2026-05-08 10:43 48.99163 2.54082 678 ft 133 kts 84°
2026-05-08 10:43 48.99232 2.55491 531 ft 135 kts 84°
2026-05-08 10:43 48.99309 2.56924 387 ft 135 kts 84°
2026-05-08 10:43 48.99379 2.58247 360 ft 113 kts 85°
2026-05-08 10:44 48.99430 2.59154 357 ft 59 kts 85°
2026-05-08 10:44 48.99453 2.59550 358 ft 35 kts 84°
2026-05-08 10:44 48.99505 2.59891 366 ft 28 kts 56°
2026-05-08 10:44 48.99633 2.59978 363 ft 20 kts 358°
2026-05-08 10:45 48.99693 2.59970 359 ft 0 kts 355°
2026-05-08 10:45 48.99694 2.59970 359 ft 0 kts 355°
2026-05-08 10:45 48.99699 2.59970 359 ft 1 kts 355°
2026-05-08 10:45 48.99702 2.59969 359 ft 0 kts 355°
2026-05-08 10:46 48.99704 2.59969 359 ft 2 kts 355°
2026-05-08 10:46 48.99751 2.59962 362 ft 8 kts 355°
2026-05-08 10:47 48.99809 2.59955 365 ft 9 kts 355°
2026-05-08 10:47 48.99893 2.59993 365 ft 14 kts 44°
2026-05-08 10:47 48.99974 2.60068 364 ft 13 kts 352°
2026-05-08 10:47 49.00055 2.60003 364 ft 13 kts 342°
2026-05-08 10:48 49.00095 2.59890 362 ft 14 kts 270°
2026-05-08 10:48 49.00086 2.59746 365 ft 14 kts 263°
2026-05-08 10:48 49.00078 2.59600 361 ft 14 kts 266°
2026-05-08 10:48 49.00070 2.59449 360 ft 15 kts 266°
2026-05-08 10:49 49.00063 2.59292 365 ft 15 kts 265°
2026-05-08 10:49 49.00058 2.59185 363 ft 15 kts 265°
2026-05-08 10:49 49.00049 2.59021 365 ft 14 kts 265°
2026-05-08 10:49 49.00053 2.58918 365 ft 9 kts 296°
2026-05-08 10:50 49.00110 2.58892 362 ft 9 kts
2026-05-08 10:50 49.00172 2.58889 365 ft 8 kts
2026-05-08 10:50 49.00195 2.58951 363 ft 6 kts 82°
2026-05-08 10:50 49.00197 2.58987 364 ft 1 kts 86°
2026-05-08 10:51 49.00198 2.58998 364 ft 1 kts 85°
2026-05-08 10:51 49.00199 2.59013 364 ft 2 kts 85°
2026-05-08 10:51 49.00199 2.59021 364 ft 0 kts 85°